Location: El Álamo
(40.2307°N, 3.9945°W)
Time: 03:41:59
(UTC+00:00)

Cosmos 2084 Rocket - Pass Details

Date: 19 May 2025
Orbit: 543 x 578 km, 62.8° (Epoch: 23 June)

Event Time Altitude Azimuth Distance (km) Brightness Sun altitude
Rises 21:50:58 0° 226° (SW) 2,778 6.8 -21.4°
Reaches altitude 10° 21:53:15 10° 231° (SW) 1,881 6.0 -21.6°
Maximum altitude 21:57:24 52° 308° (NW) 719 4.2 -22.1°
Drops below altitude 10° 22:01:32 10° 26° (NNE) 1,878 6.4 -22.5°
Sets 22:03:49 0° 31° (NNE) 2,773 7.2 -22.7°
